Purchase, NY

9:49 AM EST on February 06, 2016 (GMT -0500)
Westchester County

Weather History for KHPN - May, 2012

Change the Weather History Date:

Wednesday, May 2, 2012

  Actual Average (KLGA) Record (KLGA)
Temperature  
Mean Temperature 50 °F 58 °F  
Max Temperature 52 °F 67 °F 90 °F (2010)
Min Temperature 48 °F 50 °F 40 °F (1978)
Degree Days  
Heating Degree Days 15 7  
Month to date heating degree days 15  
Since 1 July heating degree days 4529  
Cooling Degree Days 0 1  
Month to date cooling degree days 2  
Year to date cooling degree days 10  
Moisture  
Dew Point 46 °F    
Average Humidity 86    
Maximum Humidity 90    
Minimum Humidity 80    
Precipitation  
Precipitation 0.05 in 0.12 in 0.83 in (1989)
Month to date precipitation 0.22  
Year to date precipitation 14.12  
Snow  
Snow 0.00 in 0.00 in - ()
Month to date snowfall 0.0  
Since 1 July snowfall 26.9  
Snow Depth -    
Sea Level Pressure  
Sea Level Pressure 30.15 in    
Wind  
Wind Speed 6 mph (East)    
Max Wind Speed 10 mph    
Max Gust Speed -    
Visibility 10 miles    
Events Rain    
T = Trace of Precipitation, MM = Missing Value Source: NWS Daily Summary

Daily Weather History Graph

Daily Weather History Graph

Search for Another Location

Airport or City:

Trip Planner

Search our weather history database for the weather conditions in past years. The results will help you decide how hot, cold, wet, or windy it might be!

Date:

Astronomy

May. 02, 2012 Rise Set
Actual Time 5:50 AM EDT 7:53 PM EDT
Civil Twilight 5:20 AM EDT 8:23 PM EDT
Nautical Twilight 4:44 AM EDT 9:00 PM EDT
Astronomical Twilight 4:04 AM EDT 9:40 PM EDT
Moon 4:01 PM EDT (5/2) 3:21 AM EDT (5/2)
Length of Visible Light 15h 02m
Length of Day
14h 02m
Waxing Gibbous, 83% of the Moon is Illuminated
May 2
Waxing Gibbous
May 5
Full
May 12
Last Quarter
May 20
New
May 28
First Quarter

Hourly Weather History & Observations

Time (EDT) Temp. Dew Point Humidity Pressure Visibility Wind Dir Wind Speed Gust Speed Precip Events Conditions
12:56 AM 52.0 °F 48.9 °F 89% 30.09 in 10.0 mi East 8.1 mph - N/A   Overcast
1:56 AM 51.1 °F 48.0 °F 89% 30.09 in 10.0 mi East 4.6 mph - N/A   Overcast
2:56 AM 51.1 °F 48.0 °F 89% 30.09 in 10.0 mi East 4.6 mph - N/A   Overcast
3:56 AM 50.0 °F 46.9 °F 89% 30.11 in 10.0 mi ENE 4.6 mph - N/A   Overcast
4:56 AM 48.9 °F 46.0 °F 90% 30.11 in 10.0 mi ESE 4.6 mph - N/A   Overcast
5:56 AM 48.9 °F 44.1 °F 83% 30.13 in 10.0 mi East 4.6 mph - N/A   Overcast
6:56 AM 48.9 °F 44.1 °F 83% 30.14 in 10.0 mi East 5.8 mph - N/A   Overcast
7:37 AM 48.2 °F 44.6 °F 87% 30.14 in 10.0 mi ENE 5.8 mph - N/A   Overcast
7:56 AM 48.9 °F 44.1 °F 83% 30.14 in 10.0 mi East 6.9 mph - N/A   Overcast
8:56 AM 48.9 °F 44.1 °F 83% 30.16 in 10.0 mi ESE 8.1 mph - 0.00 in Rain Light Rain
9:56 AM 48.0 °F 45.0 °F 89% 30.17 in 8.0 mi SE 6.9 mph - 0.00 in Rain Light Rain
10:56 AM 48.0 °F 45.0 °F 89% 30.17 in 8.0 mi ESE 5.8 mph - 0.02 in Rain Light Rain
11:56 AM 48.9 °F 46.0 °F 90% 30.17 in 8.0 mi ENE 8.1 mph - 0.02 in Rain Light Rain
12:56 PM 48.9 °F 46.0 °F 90% 30.18 in 10.0 mi ESE 3.5 mph - 0.01 in   Overcast
1:56 PM 48.9 °F 46.0 °F 90% 30.19 in 10.0 mi East 4.6 mph - 0.00 in   Light Drizzle
2:56 PM 50.0 °F 46.0 °F 86% 30.20 in 10.0 mi Variable 3.5 mph - 0.00 in   Light Drizzle
3:56 PM 51.8 °F 46.4 °F 82% 30.16 in 10.0 mi ESE 5.8 mph - N/A   Light Drizzle
4:10 PM 51.8 °F 46.4 °F 82% 30.15 in 10.0 mi ESE 10.4 mph - 0.00 in   Light Drizzle
4:56 PM 51.1 °F 46.0 °F 83% 30.17 in 10.0 mi ESE 5.8 mph - 0.00 in   Overcast
5:56 PM 51.1 °F 46.0 °F 83% 30.18 in 10.0 mi Calm Calm - N/A   Overcast
6:56 PM 51.1 °F 45.0 °F 80% 30.17 in 10.0 mi ENE 4.6 mph - N/A   Overcast
7:56 PM 51.1 °F 46.0 °F 83% 30.18 in 10.0 mi Calm Calm - N/A   Overcast
8:56 PM 51.1 °F 46.9 °F 86% 30.18 in 10.0 mi ESE 3.5 mph - N/A   Overcast
9:56 PM 50.0 °F 46.9 °F 89% 30.16 in 10.0 mi ESE 5.8 mph - N/A   Overcast
10:56 PM 50.0 °F 46.9 °F 89% 30.17 in 10.0 mi ESE 4.6 mph - 0.00 in   Light Drizzle
11:56 PM 50.0 °F 46.9 °F 89% 30.16 in 10.0 mi ESE 5.8 mph - 0.00 in   Light Drizzle